Powrót do katalogu

STARLINK-32940

AktywnyŁącznośćVLEO
NORAD 63568·PAYLOAD·🇺🇸 United States

Wystrzelony Apr 13, 2025 z Cape Canaveral Space Force Station

Loading…

Następne Przeloty (najbliższe 24 godziny)

TLE

ŚwieżeSource: CelesTrak SupGP

Epoka: Sep 15, 2026, 02:30 UTC

1 63568C 25075W   26258.10465278  .00005010  00000+0  18139-3 0  2581
2 63568  42.9998 280.8297 0001230 264.2601 204.2368 15.27590125    17

Śledź STARLINK-32940 w czasie rzeczywistym z AllMySat

Download on the App Store